• In Uzbekistan
  • List of Countries
  • For 7 days
  • Water Temperature
  • Satellite Maps
  • Weather Map
  • Weather Widgets
  • user-avatar
    Login

    Hourly Weather Castilho

    Today, 22 September, Saturday

    Time Temperature Precipitation Wind Pressure Humidity
    00:00 +27°C° 0 mm 2 mps 727 mmHg 67%
    01:00 +27°C° 0 mm 2 mps 727 mmHg 68%
    02:00 +26°C° 0 mm 2 mps 726 mmHg 69%
    03:00 +26°C° 0 mm 2 mps 726 mmHg 70%
    04:00 +26°C° 0 mm 2 mps 726 mmHg 70%
    05:00 +25°C° 0 mm 2 mps 726 mmHg 71%
    06:00 +25°C° 0 mm 2 mps 726 mmHg 72%
    07:00 +27°C° 0 mm 2 mps 727 mmHg 67%
    08:00 +28°C° 0 mm 2 mps 727 mmHg 61%
    09:00 +30°C° 0 mm 3 mps 728 mmHg 56%
    10:00 +31°C° 0 mm 3 mps 728 mmHg 51%
    11:00 +34°C° 0 mm 2 mps 728 mmHg 47%
    12:00 +35°C° 0 mm 2 mps 727 mmHg 43%
    13:00 +36°C° 0 mm 2 mps 727 mmHg 40%
    14:00 +36°C° 0 mm 1 mps 726 mmHg 37%
    15:00 +35°C° 0 mm 0 mps 725 mmHg 34%
    16:00 +36°C° 0 mm 1 mps 725 mmHg 36%
    17:00 +35°C° 0 mm 1 mps 725 mmHg 39%
    18:00 +34°C° 0 mm 1 mps 724 mmHg 41%
    19:00 +33°C° 0 mm 1 mps 725 mmHg 42%
    20:00 +32°C° 0 mm 1 mps 725 mmHg 44%
    21:00 +31°C° 0 mm 1 mps 725 mmHg 45%
    22:00 +30°C° 0 mm 2 mps 725 mmHg 46%
    23:00 +29°C° 0 mm 2 mps 726 mmHg 47%

    Tomorrow, 23 September, Sunday

    Time Temperature Precipitation Wind Pressure Humidity
    00:00 +29°C° 0 mm 2 mps 726 mmHg 48%
    01:00 +28°C° 0 mm 2 mps 725 mmHg 50%
    02:00 +28°C° 0 mm 2 mps 725 mmHg 51%
    03:00 +27°C° 0 mm 2 mps 725 mmHg 53%
    04:00 +27°C° 0 mm 2 mps 725 mmHg 54%
    05:00 +26°C° 0 mm 2 mps 725 mmHg 54%
    06:00 +26°C° 0 mm 2 mps 725 mmHg 55%
    07:00 +27°C° 0 mm 3 mps 726 mmHg 51%
    08:00 +29°C° 0 mm 3 mps 727 mmHg 47%
    09:00 +31°C° 0 mm 3 mps 727 mmHg 42%
    10:00 +34°C° 0 mm 3 mps 727 mmHg 37%
    11:00 +36°C° 0 mm 3 mps 727 mmHg 32%
    12:00 +37°C° 0 mm 3 mps 728 mmHg 27%
    13:00 +38°C° 0 mm 3 mps 727 mmHg 26%
    14:00 +38°C° 0 mm 2 mps 726 mmHg 24%
    15:00 +39°C° 0 mm 2 mps 725 mmHg 22%
    16:00 +37°C° 0 mm 2 mps 725 mmHg 25%
    17:00 +36°C° 0 mm 2 mps 725 mmHg 27%
    18:00 +35°C° 0 mm 2 mps 725 mmHg 30%
    19:00 +34°C° 0 mm 2 mps 725 mmHg 31%
    20:00 +31°C° 0 mm 2 mps 725 mmHg 31%
    21:00 +30°C° 0 mm 2 mps 726 mmHg 32%
    22:00 +29°C° 0 mm 2 mps 726 mmHg 34%
    23:00 +29°C° 0 mm 2 mps 726 mmHg 35%

    Day after tomorrow, 24 September, Monday

    Time Temperature Precipitation Wind Pressure Humidity
    00:00 +28°C° 0 mm 2 mps 726 mmHg 37%
    01:00 +28°C° 0 mm 2 mps 725 mmHg 39%
    02:00 +27°C° 0 mm 2 mps 725 mmHg 40%
    03:00 +27°C° 0 mm 2 mps 725 mmHg 41%
    04:00 +26°C° 0 mm 2 mps 725 mmHg 43%
    05:00 +26°C° 0 mm 2 mps 725 mmHg 44%
    06:00 +25°C° 0 mm 2 mps 725 mmHg 45%
    07:00 +27°C° 0 mm 3 mps 726 mmHg 43%
    08:00 +29°C° 0 mm 3 mps 726 mmHg 40%
    09:00 +31°C° 0 mm 3 mps 727 mmHg 38%
    10:00 +34°C° 0 mm 3 mps 727 mmHg 34%
    11:00 +36°C° 0 mm 3 mps 727 mmHg 30%
    12:00 +38°C° 0 mm 3 mps 727 mmHg 25%
    13:00 +39°C° 0 mm 2 mps 726 mmHg 25%
    14:00 +39°C° 0 mm 1 mps 726 mmHg 24%
    15:00 +40°C° 0 mm 1 mps 725 mmHg 23%
    16:00 +39°C° 0 mm 1 mps 725 mmHg 26%
    17:00 +36°C° 0 mm 1 mps 725 mmHg 29%
    18:00 +35°C° 0 mm 1 mps 725 mmHg 32%
    19:00 +34°C° 0 mm 1 mps 725 mmHg 32%
    20:00 +33°C° 0 mm 1 mps 725 mmHg 33%
    21:00 +32°C° 0 mm 1 mps 725 mmHg 34%
    22:00 +31°C° 0 mm 2 mps 725 mmHg 35%
    23:00 +30°C° 0 mm 2 mps 725 mmHg 36%

    25 September, Tuesday

    Time Temperature Precipitation Wind Pressure Humidity
    00:00 +30°C° 0 mm 2 mps 726 mmHg 37%
    01:00 +29°C° 0 mm 2 mps 725 mmHg 37%
    02:00 +29°C° 0 mm 2 mps 725 mmHg 38%
    03:00 +28°C° 0 mm 2 mps 724 mmHg 39%
    04:00 +27°C° 0 mm 2 mps 724 mmHg 40%
    05:00 +27°C° 0 mm 2 mps 724 mmHg 42%
    06:00 +27°C° 0 mm 1 mps 724 mmHg 43%
    07:00 +28°C° 0 mm 2 mps 725 mmHg 42%
    08:00 +30°C° 0 mm 2 mps 726 mmHg 40%
    09:00 +32°C° 0 mm 2 mps 726 mmHg 38%
    10:00 +35°C° 0 mm 3 mps 726 mmHg 33%
    11:00 +37°C° 0 mm 3 mps 726 mmHg 29%
    12:00 +40°C° 0 mm 4 mps 726 mmHg 24%
    13:00 +41°C° 0 mm 4 mps 725 mmHg 23%
    14:00 +40°C° 0 mm 3 mps 724 mmHg 22%
    15:00 +40°C° 0 mm 3 mps 724 mmHg 20%
    16:00 +39°C° 0 mm 2 mps 723 mmHg 23%
    17:00 +38°C° 0 mm 2 mps 723 mmHg 26%
    18:00 +35°C° 0 mm 1 mps 723 mmHg 29%
    19:00 +34°C° 0 mm 1 mps 723 mmHg 30%
    20:00 +33°C° 0 mm 1 mps 724 mmHg 31%
    21:00 +32°C° 0 mm 1 mps 724 mmHg 31%
    22:00 +32°C° 0 mm 2 mps 724 mmHg 33%
    23:00 +31°C° 0 mm 2 mps 724 mmHg 34%

    26 September, Wednesday

    Time Temperature Precipitation Wind Pressure Humidity
    00:00 +31°C° 0 mm 2 mps 724 mmHg 36%
    01:00 +30°C° 0 mm 2 mps 723 mmHg 37%
    02:00 +30°C° 0 mm 2 mps 723 mmHg 39%
    03:00 +30°C° 0 mm 2 mps 722 mmHg 41%
    04:00 +30°C° 0 mm 2 mps 723 mmHg 43%
    05:00 +29°C° 0 mm 2 mps 723 mmHg 45%
    06:00 +29°C° 0 mm 1 mps 723 mmHg 48%
    07:00 +30°C° 0 mm 2 mps 724 mmHg 46%
    08:00 +32°C° 0 mm 2 mps 725 mmHg 44%
    09:00 +34°C° 0 mm 2 mps 725 mmHg 42%
    10:00 +36°C° 0 mm 3 mps 725 mmHg 37%
    11:00 +37°C° 0 mm 3 mps 725 mmHg 33%
    12:00 +39°C° 0 mm 3 mps 725 mmHg 29%
    13:00 +39°C° 0 mm 3 mps 724 mmHg 29%
    14:00 +39°C° 0 mm 3 mps 723 mmHg 30%
    15:00 +38°C° 0 mm 3 mps 722 mmHg 30%
    16:00 +37°C° 0 mm 4 mps 722 mmHg 33%
    17:00 +36°C° 0 mm 4 mps 722 mmHg 37%
    18:00 +35°C° 0 mm 5 mps 722 mmHg 40%
    19:00 +33°C° 0.9 mm 5 mps 723 mmHg 50%
    20:00 +29°C° 0.9 mm 5 mps 724 mmHg 61%
    21:00 +27°C° 0.9 mm 5 mps 724 mmHg 71%
    22:00 +27°C° 1.6 mm 5 mps 725 mmHg 74%
    23:00 +26°C° 1.6 mm 4 mps 725 mmHg 77%

    27 September, Thursday

    Time Temperature Precipitation Wind Pressure Humidity
    00:00 +26°C° 1.6 mm 4 mps 725 mmHg 80%
    01:00 +25°C° 1.3 mm 4 mps 725 mmHg 80%
    02:00 +25°C° 1.3 mm 4 mps 724 mmHg 80%
    03:00 +25°C° 1.3 mm 5 mps 724 mmHg 80%
    04:00 +25°C° 1.2 mm 4 mps 724 mmHg 79%
    05:00 +25°C° 1.2 mm 4 mps 724 mmHg 78%
    06:00 +24°C° 1.2 mm 3 mps 724 mmHg 77%
    07:00 +26°C° 0.6 mm 3 mps 724 mmHg 72%
    08:00 +27°C° 0.6 mm 3 mps 725 mmHg 68%
    09:00 +29°C° 0.6 mm 3 mps 726 mmHg 63%
    10:00 +30°C° 0 mm 3 mps 725 mmHg 57%
    11:00 +32°C° 0 mm 2 mps 725 mmHg 51%
    12:00 +35°C° 0 mm 2 mps 725 mmHg 44%
    13:00 +36°C° 0 mm 2 mps 725 mmHg 42%
    14:00 +37°C° 0 mm 2 mps 724 mmHg 39%
    15:00 +37°C° 0 mm 1 mps 723 mmHg 36%
    16:00 +36°C° 0 mm 1 mps 723 mmHg 39%
    17:00 +35°C° 0 mm 1 mps 723 mmHg 42%
    18:00 +34°C° 0 mm 1 mps 723 mmHg 45%
    19:00 +32°C° 0.7 mm 1 mps 724 mmHg 51%
    20:00 +31°C° 0.7 mm 2 mps 724 mmHg 58%
    21:00 +29°C° 0.7 mm 3 mps 725 mmHg 64%
    22:00 +28°C° 0.4 mm 2 mps 725 mmHg 66%
    23:00 +28°C° 0.4 mm 2 mps 725 mmHg 69%
    Show more